EW9523 Weather Reports


Display with metric or nautical units.
time (UTC)temp
F
wind
direction
speed
MPH
gust
MPH
rain 1hr
in
rain 24hr
in
rain mn
in
humidity
%
barometer
mb
20260902162923 61 156 2.0 6.0 0.00 0.07 0.07 96 1015.5
20260902161920 61 150 3.0 9.0 0.00 0.07 0.07 95 1015.4
20260902160918 61 87 1.0 5.0 0.00 0.07 0.07 96 1015.3
20260902155917 60 257 2.0 6.0 0.00 0.07 0.07 96 1015.4
20260902154918 60 146 2.0 7.0 0.00 0.07 0.07 95 1015.4
20260902154411 60 183 2.0 10.0 0.00 0.07 0.07 95 1015.3
20260902153353 60 199 1.0 4.0 0.00 0.07 0.07 96 1015.3
20260902151917 60 164 1.0 5.0 0.00 0.07 0.07 96 1015.2
20260902151404 60 109 2.0 5.0 0.01 0.07 0.07 96 1015.2
20260902145918 60 110 1.0 5.0 0.01 0.07 0.07 96 1015.2
20260902145352 60 179 2.0 4.0 0.01 0.07 0.07 95 1015.3
20260902143914 60 163 1.0 4.0 0.01 0.07 0.07 95 1015.1
20260902142907 60 208 1.0 4.0 0.02 0.07 0.07 95 1015.0
20260902142758 59 183 1.0 4.0 0.02 0.07 0.07 95 1014.9
20260902141309 59 206 1.0 3.0 0.01 0.06 0.06 95 1014.8
20260902135834 59 154 1.0 4.0 0.01 0.06 0.06 95 1014.6
20260902134834 59 136 2.0 4.0 0.01 0.06 0.06 95 1014.5
20260902133833 59 149 1.0 5.0 0.02 0.06 0.06 95 1014.5
20260902132833 59 186 0.0 3.0 0.02 0.05 0.05 95 1014.4
20260902131833 59 71 1.0 5.0 0.03 0.05 0.05 95 1014.4
20260902130824 59 159 0.0 3.0 0.04 0.05 0.05 95 1014.4
20260902125823 59 119 1.0 4.0 0.04 0.05 0.05 95 1014.4
20260902124812 59 128 1.0 3.0 0.05 0.05 0.05 94 1014.3
20260902124243 59 141 1.0 4.0 0.04 0.04 0.04 94 1014.2
20260902122758 59 247 0.0 2.0 0.03 0.03 0.03 94 1014.4
20260902121756 59 119 1.0 5.0 0.02 0.02 0.02 94 1014.3
20260902120755 59 223 1.0 3.0 0.01 0.01 0.02 93 1014.3
20260902115754 59 217 0.0 3.0 0.01 0.01 0.01 93 1014.3
20260902114755 59 107 0.0 0.0 0.00 0.00 0.00 92 1014.2
20260902113753 59 107 1.0 4.0 0.00 0.00 0.00 91 1014.2
20260902112731 59 124 0.0 0.0 0.00 0.00 0.00 90 1014.3
20260902111719 59 124 0.0 0.0 0.00 0.00 0.00 88 1014.3
20260902110707 59 124 0.0 0.0 0.00 0.00 0.00 87 1014.2
20260902105705 59 124 0.0 0.0 0.00 0.00 0.00 88 1014.2
20260902105121 59 124 0.0 2.0 0.00 0.00 0.00 88 1014.2
20260902104105 59 44 0.0 1.0 0.00 0.00 0.00 88 1014.3
20260902102629 59 299 0.0 0.0 0.00 0.00 0.00 87 1014.4
20260902101630 59 299 0.0 0.0 0.00 0.00 0.00 87 1014.5
20260902100629 59 299 0.0 1.0 0.00 0.00 0.00 86 1014.6
20260902095630 59 299 0.0 1.0 0.00 0.00 0.00 86 1014.7
20260902094617 59 19 0.0 1.0 0.00 0.00 0.00 85 1014.7
20260902094050 58 20 0.0 0.0 0.00 0.00 0.00 85 1014.9
20260902093017 58 20 0.0 1.0 0.00 0.00 0.00 85 1014.9
20260902091525 58 20 0.0 1.0 0.00 0.00 0.00 85 1015.0
20260902090508 58 20 0.0 0.0 0.00 0.00 0.00 85 1015.1
20260902085450 58 20 0.0 0.0 0.00 0.00 0.00 85 1015.1
20260902084914 57 20 0.0 1.0 0.00 0.00 0.00 85 1015.2
20260902083431 57 314 0.0 2.0 0.00 0.00 0.00 85 1015.3
20260902082432 57 309 0.0 3.0 0.00 0.00 0.00 85 1015.2
20260902081430 57 331 0.0 3.0 0.00 0.00 0.00 85 1015.0
20260902080910 57 78 0.0 0.0 0.00 0.00 0.00 86 1015.2
20260902075427 56 78 0.0 0.0 0.00 0.00 0.00 85 1015.1
20260902074411 56 78 0.0 0.0 0.00 0.00 0.00 86 1015.0
20260902073346 56 78 0.0 0.0 0.00 0.00 0.00 87 1015.0
20260902072322 56 78 0.0 0.0 0.00 0.00 0.00 86 1015.0
20260902071258 56 78 0.0 0.0 0.00 0.00 0.00 85 1014.9
20260902070712 57 78 0.0 0.0 0.00 0.00 0.00 84 1014.8
20260902065211 56 78 0.0 2.0 0.00 0.00 0.00 85 1014.8
20260902064211 57 78 0.0 2.0 0.00 0.00 0.00 84 1014.8
20260902063212 57 78 0.0 2.0 0.00 0.00 0.00 84 1014.8
20260902062159 57 78 0.0 2.0 0.00 0.00 0.00 82 1014.7
20260902061132 58 78 0.0 0.0 0.00 0.00 0.00 81 1014.8
20260902060125 58 78 0.0 0.0 0.00 0.00 0.00 81 1014.9
20260902055125 59 78 0.0 2.0 0.00 0.00 0.00 80 1014.8
20260902054541 59 78 2.0 4.0 0.00 0.00 0.00 80 1014.9
20260902053044 59 79 2.0 3.0 0.00 0.00 0.00 80 1014.9
20260902052042 58 78 2.0 4.0 0.00 0.00 0.00 79 1015.0
20260902051040 59 73 3.0 4.0 0.00 0.00 0.00 79 1014.9
20260902050041 59 67 2.0 4.0 0.00 0.00 0.00 77 1014.7
20260902045034 60 71 2.0 3.0 0.00 0.00 0.00 76 1014.8
20260902044032 61 61 1.0 3.0 0.00 0.00 0.00 75 1014.8
20260902043032 62 116 0.0 0.0 0.00 0.00 0.00 74 1014.7
20260902042025 62 116 0.0 3.0 0.00 0.00 0.00 73 1014.4
20260902041020 62 132 1.0 3.0 0.00 0.00 0.00 73 1014.1
20260902040016 62 95 0.0 2.0 0.00 0.00 0.00 74 1014.1
20260902035014 62 5 0.0 2.0 0.00 0.00 0.00 73 1014.5
20260902034012 63 302 0.0 0.0 0.00 0.00 0.00 75 1014.6
20260902033010 63 302 0.0 1.0 0.00 0.00 0.00 74 1014.5
20260902032002 63 52 0.0 2.0 0.00 0.00 0.00 74 1014.2
20260902031435 64 52 0.0 2.0 0.00 0.00 0.00 72 1014.3
20260902025949 64 40 0.0 2.0 0.00 0.00 0.00 70 1014.0
20260902024951 65 239 1.0 3.0 0.00 0.00 0.00 69 1014.0
20260902023946 65 231 2.0 9.0 0.00 0.00 0.00 68 1014.1
20260902022946 65 225 3.0 10.0 0.00 0.00 0.00 67 1014.1
20260902021946 65 267 4.0 10.0 0.00 0.00 0.00 66 1014.1
20260902020944 66 315 2.0 10.0 0.00 0.00 0.00 65 1014.2
20260902020428 66 289 2.0 5.0 0.00 0.00 0.00 64 1014.2
20260902014939 67 199 3.0 10.0 0.00 0.00 0.00 63 1014.2
20260902013940 67 294 3.0 11.0 0.00 0.00 0.00 61 1014.2
20260902012938 68 286 5.0 16.0 0.00 0.00 0.00 60 1014.2
20260902011938 69 275 5.0 16.0 0.00 0.00 0.00 58 1014.0
20260902010938 69 252 4.0 11.0 0.00 0.00 0.00 58 1013.9
20260902005936 70 274 5.0 15.0 0.00 0.00 0.00 57 1013.7
20260902004936 71 209 5.0 10.0 0.00 0.00 0.00 55 1013.7
20260902003936 72 227 5.0 12.0 0.00 0.00 0.00 55 1013.6
20260902002936 72 233 5.0 12.0 0.00 0.00 0.00 54 1013.6
20260902001936 72 227 6.0 12.0 0.00 0.00 0.00 54 1013.5
20260902000935 72 189 5.0 12.0 0.00 0.00 0.00 54 1013.6
20260902000907 72 269 4.0 10.0 0.00 0.00 0.00 55 1013.6
20260901234924 71 268 5.0 13.0 0.00 0.00 0.00 56 1013.5
20260901233924 71 275 5.0 12.0 0.00 0.00 0.00 55 1013.6
20260901232924 71 270 3.0 10.0 0.00 0.00 0.00 54 1013.5
20260901231922 71 249 3.0 10.0 0.00 0.00 0.00 54 1013.5
20260901230922 71 307 4.0 12.0 0.00 0.00 0.00 54 1013.6
20260901230355 71 223 4.0 10.0 0.00 0.00 0.00 53 1013.6
20260901224917 70 157 4.0 11.0 0.00 0.00 0.00 54 1013.6
20260901223914 70 203 5.0 10.0 0.00 0.00 0.00 56 1013.5
20260901222913 69 239 6.0 14.0 0.00 0.00 0.00 57 1013.5
20260901221914 70 338 7.0 16.0 0.00 0.00 0.00 57 1013.5
20260901220902 70 271 7.0 17.0 0.00 0.00 0.00 57 1013.8
20260901220327 71 277 4.0 17.0 0.00 0.00 0.00 56 1013.7
20260901214850 72 215 2.0 5.0 0.00 0.00 0.00 54 1013.7
20260901213849 71 182 4.0 10.0 0.00 0.00 0.00 55 1013.6
20260901212849 72 248 2.0 6.0 0.00 0.00 0.00 55 1013.6
20260901211849 71 251 3.0 6.0 0.00 0.00 0.00 55 1013.6
20260901210844 72 246 3.0 9.0 0.00 0.00 0.00 55 1013.5
20260901205844 72 205 2.0 6.0 0.00 0.00 0.00 55 1013.6
20260901204841 72 229 2.0 7.0 0.00 0.00 0.00 55 1013.6
20260901203839 72 281 4.0 10.0 0.00 0.00 0.00 56 1013.5
20260901202839 72 264 3.0 11.0 0.00 0.00 0.00 57 1013.6
20260901201833 71 220 1.0 5.0 0.00 0.00 0.00 61 1013.9
20260901201304 70 161 1.0 4.0 0.00 0.00 0.00 62 1014.0
20260901195824 69 153 1.0 3.0 0.00 0.00 0.00 62 1014.1
20260901194824 69 46 2.0 7.0 0.00 0.00 0.00 64 1014.2
20260901193822 69 174 3.0 9.0 0.00 0.00 0.00 66 1014.4
20260901192821 69 229 3.0 9.0 0.00 0.00 0.00 67 1014.3
20260901191821 69 204 1.0 6.0 0.00 0.00 0.00 65 1014.2
20260901190821 69 74 2.0 6.0 0.00 0.00 0.00 65 1014.3
20260901185821 69 162 2.0 6.0 0.00 0.00 0.00 68 1014.5
20260901185305 68 82 2.0 5.0 0.00 0.00 0.00 70 1014.6
20260901183813 67 237 1.0 4.0 0.00 0.00 0.00 72 1014.6
20260901182811 66 186 1.0 7.0 0.00 0.00 0.00 73 1014.6
20260901181810 65 50 2.0 4.0 0.00 0.00 0.00 74 1014.5
20260901180754 65 141 1.0 3.0 0.00 0.00 0.00 76 1014.6
20260901180219 64 160 1.0 4.0 0.00 0.00 0.00 79 1014.5
20260901174738 63 171 1.0 4.0 0.00 0.00 0.00 81 1014.5
20260901173734 63 121 2.0 5.0 0.00 0.00 0.00 82 1014.3
20260901172734 62 98 2.0 4.0 0.00 0.00 0.00 82 1014.2
20260901171733 62 112 1.0 3.0 0.00 0.00 0.00 81 1014.2
20260901170731 63 292 1.0 4.0 0.00 0.00 0.00 79 1014.2
20260901170212 64 43 1.0 5.0 0.00 0.00 0.00 77 1014.0
20260901164731 64 190 2.0 5.0 0.00 0.00 0.00 77 1014.0
20260901163731 63 169 1.0 4.0 0.00 0.00 0.00 79 1013.9